Regional Weather Roundup
Issued by NWS

Home | Current Version | Previous Version | Text Only | Print | Product List | Glossary Off
Versions: 1 2 3 4 5 6 7 8 9 10 11 12 13 14 15 16 17 18 19 20 21 22 23 24 25 26 27 28 29 30 31 32 33 34 35 36 37 38 39 40 41 42 43 44 45 46 47 48 49 50

964
ASUS43 KLMK 231510
RWRKY
KENTUCKY REGIONAL WEATHER ROUNDUP
NATIONAL WEATHER SERVICE LOUISVILLE KY
1100 AM EDT SAT SEP 23 2017

NOTE "FAIR" INDICATES FEW OR NO CLOUDS BELOW 12,000 FEET
WITH NO SIGNIFICANT WEATHER AND/OR OBSTRUCTIONS TO VISIBILITY.

KYZ001>023-026-027-061>063-070>075-231600-
WESTERN AND SOUTH CENTRAL KENTUCKY

CITY           SKY/WX    TMP DP  RH WIND       PRES   REMARKS
PADUCAH        SUNNY     82  68  62 E5        30.06S
HENDERSON      SUNNY     80  70  71 NE3       30.10R
OWENSBORO      SUNNY     83  68  60 E3        30.10S
HOPKINSVILLE   SUNNY     79  70  74 CALM      30.08R
BOWLING GREEN  MOSUNNY   79  70  74 NE3       30.10R
GLASGOW        SUNNY     78  67  69 NE3       30.11S
$$

KYZ024-025-028>034-038-045-046-053-231600-
NORTH CENTRAL KENTUCKY

CITY           SKY/WX    TMP DP  RH WIND       PRES   REMARKS
LOUISVILLE/SDF SUNNY     81  66  60 VRB5      30.11S
LOUISVILLE/LOU SUNNY     82  68  62 E6        30.12S
FORT KNOX      SUNNY     77  65  67 E6        30.11S
$$

KYZ035>037-039>044-047>052-055>060-089>105-231600-
NORTHEAST KENTUCKY

CITY           SKY/WX    TMP DP  RH WIND       PRES   REMARKS
LEXINGTON      SUNNY     80  68  66 NE8       30.14S
COVINGTON      SUNNY     82  68  62 NE5       30.14S
FRANKFORT      SUNNY     79  66  64 E6        30.12S
$$

KYZ054-064>069-076>088-106>120-231600-
SOUTHEAST KENTUCKY

CITY           SKY/WX    TMP DP  RH WIND       PRES   REMARKS
JACKSON        SUNNY     76  67  73 CALM      30.15S
LONDON         SUNNY     79  63  57 CALM      30.14R
SOMERSET       SUNNY     75  64  69 CALM      30.14S
MIDDLESBORO    MOSUNNY   68  65  93 CALM      30.14F
MONTICELLO     SUNNY     77  68  73 VRB3      30.14S
$$





USA.gov is the U.S. government's official web portal to all federal, state and local government web resources and services.